Weather History for KCEF - September, 2013

Change the Weather History Date:

Wednesday, September 4, 2013

  Actual Average Record
Temperature  
Mean Temperature 68 °F -  
Max Temperature 80 °F 75 °F 87 °F (1999)
Min Temperature 57 °F 54 °F 50 °F (1997)
Cooling Degree Days 4    
Growing Degree Days 18 (Base 50)    
Moisture  
Dew Point 57 °F    
Average Humidity 71    
Maximum Humidity 99    
Minimum Humidity 38    
Precipitation  
Precipitation 0.00 in - - ()
Sea Level Pressure  
Sea Level Pressure 29.92 in    
Wind  
Wind Speed 7 mph (WSW)    
Max Wind Speed 15 mph    
Max Gust Speed 20 mph    
Visibility 10 miles    
Events      
Averages and records for this station are not official NWS values.
T = Trace of Precipitation, MM = Missing Value Source: NWS Daily Summary

Daily Weather History Graph

Daily Weather History Graph

Search for Another Location

Airport or City:

Trip Planner

Search our weather history database for the weather conditions in past years. The results will help you decide how hot, cold, wet, or windy it might be!

Date:

Astronomy

Sep. 04, 2013 Rise Set
Actual Time 6:18 AM EDT 7:18 PM EDT
Civil Twilight 5:50 AM EDT 7:47 PM EDT
Nautical Twilight 5:16 AM EDT 8:21 PM EDT
Astronomical Twilight 4:40 AM EDT 8:56 PM EDT
Moon 5:28 AM EDT (9/4) 6:36 PM EDT (9/4)
Length of Visible Light 13h 56m
Length of Day
12h 59m
Waning Crescent, 1% of the Moon is Illuminated
Sep 4
Waning Crescent
Sep 5
New
Sep 12
First Quarter
Sep 19
Full
Sep 26
Last Quarter

Hourly Weather History & Observations

Time (EDT) Temp. Heat Index Dew Point Humidity Pressure Visibility Wind Dir Wind Speed Gust Speed Precip Events Conditions
12:58 AM 61.0 °F - 57.0 °F 87% 29.87 in 10.0 mi West 9.2 mph - N/A   Clear
1:58 AM 61.9 °F - 56.8 °F 84% 29.87 in 10.0 mi WSW 4.6 mph - N/A   Clear
2:58 AM 63.1 °F - 57.9 °F 83% 29.87 in 10.0 mi West 6.9 mph - N/A   Mostly Cloudy
3:58 AM 61.5 °F - 58.1 °F 89% 29.87 in 10.0 mi WSW 9.2 mph - N/A   Clear
4:58 AM 59.2 °F - 58.5 °F 97% 29.89 in 10.0 mi Calm Calm - N/A   Clear
5:58 AM 57.9 °F - 57.4 °F 98% 29.91 in 10.0 mi Variable 2.3 mph - N/A   Clear
6:58 AM 58.1 °F - 57.6 °F 98% 29.93 in 10.0 mi SSW 1.2 mph - N/A   Clear
7:58 AM 64.2 °F - 60.4 °F 87% 29.95 in 10.0 mi West 5.8 mph - N/A   Clear
8:58 AM 68.5 °F - 59.2 °F 72% 29.95 in 10.0 mi WSW 9.2 mph - N/A   Clear
9:58 AM 69.8 °F - 57.2 °F 64% 29.95 in 10.0 mi WSW 12.7 mph - N/A   Clear
10:58 AM 73.2 °F - 55.9 °F 55% 29.95 in 10.0 mi West 15.0 mph - N/A   Clear
11:58 AM 74.5 °F - 55.4 °F 51% 29.94 in 10.0 mi West 8.1 mph - N/A   Clear
12:58 PM 77.0 °F - 52.9 °F 43% 29.93 in 10.0 mi WNW 13.8 mph - N/A   Clear
1:58 PM 78.1 °F - 53.8 °F 43% 29.92 in 10.0 mi West 8.1 mph - N/A   Clear
2:58 PM 80.6 °F 80.2 °F 53.1 °F 38% 29.92 in 10.0 mi West 15.0 mph 19.6 mph N/A   Clear
3:58 PM 80.1 °F 79.9 °F 53.1 °F 39% 29.92 in 10.0 mi WNW 11.5 mph - N/A   Clear
4:34 PM 78.8 °F - 53.6 °F 42% 29.89 in 10.0 mi West 12.7 mph - N/A   Clear
4:58 PM 79.3 °F - 52.9 °F 40% 29.91 in 10.0 mi WSW 11.5 mph - N/A   Clear
5:58 PM 78.6 °F - 53.6 °F 42% 29.91 in 10.0 mi West 10.4 mph - N/A   Clear
6:58 PM 75.7 °F - 56.3 °F 51% 29.92 in 10.0 mi SSW 5.8 mph - N/A   Clear
7:58 PM 68.4 °F - 58.5 °F 71% 29.93 in 10.0 mi SSW 4.6 mph - N/A   Clear
8:58 PM 61.2 °F - 60.6 °F 98% 29.95 in 10.0 mi NNE 3.5 mph - N/A   Clear
9:58 PM 58.8 °F - 58.5 °F 99% 29.95 in 10.0 mi ESE 1.2 mph - N/A   Clear
10:58 PM 57.6 °F - 57.2 °F 99% 29.95 in 6.0 mi NNE 2.3 mph - N/A   Clear
11:58 PM 57.2 °F - 57.0 °F 99% 29.93 in 10.0 mi Calm Calm - N/A   Clear